CYGFM07

Last updated on Sat Mar 14 2026 00:02:28 GMT+0000 (Coordinated Universal Time)

1 41890U 16078G 26072.59043391 .00031297 00000+0 44926-3 0 9994 2 41890 34.9452 143.6001 0005769 0.0004 0.0719 15.55072663514082
UTC large
Height (km)
Speed (km/s)
/
Latitude / Longitude
Inclination (degrees)
Orbital Period (minutes)
Azimuth
Elevation
Range (km)
Doppler Factor

Next 0 passes for location: London (51.5072 / 0.1276)

Sorry there are no passes over London.